Volver al catálogo

GALILEO 22

2C8

ActivoNavegaciónMEO
NORAD 43058·PAYLOAD·🇪🇺 EU

Lanzado Dec 12, 2017 desde Guiana Space Centre

Loading…

Próximos Pases (próximas 24 horas)

TLE

ActualizadoSource: CelesTrak SupGP

Época: Sep 14, 2026, 23:59 UTC

1 43058C 17079D   26257.99979167  .00000000  00000+0  00000+0 0  2578
2 43058  55.0517 219.0318 0005003 286.1594 130.1480  1.70474123    19

Sigue GALILEO 22 en tiempo real con AllMySat

Download on the App Store